This demonstration page uses our WeatherBlox Daily Observations layout. Learn more.

Left ArrowRight Arrow

38.20091, -84.87328

Hourly Observations for July 25, 2020

Temp ( °F °C ) Dew Point ( °F °C ) Humidity (%) Winds ( mph kmh ) Pressure ( in mb ) Visibility ( mi km ) Precip ( " mm )
12:53 am 00:53 Partly Cloudy 74 23.3 67 19.4 79 79 Calm 30.10 1019 10 16 0.00 0.00
1:53 am 01:53 Clear 70 21.1 66 18.9 87 87 Calm 30.09 1019 10 16 0.00 0.00
2:53 am 02:53 Clear 70 21.1 66 18.9 87 87 Calm 30.09 1019 10 16 0.00 0.00
3:53 am 03:53 Clear 71 21.7 67 19.4 87 87 Calm 30.08 1019 10 16 0.00 0.00
4:53 am 04:53 Clear 69 20.6 66 18.9 90 90 Calm 30.09 1019 10 16 0.00 0.00
5:53 am 05:53 Clear 69 20.6 66 18.9 90 90 Calm 30.10 1019 10 16 0.00 0.00
6:53 am 06:53 Sunny 68 20 65 18.3 90 90 Calm 30.11 1020 8 13 0.00 0.00
7:53 am 07:53 Mostly Sunny 72 22.2 69 20.6 91 91 SE 3 6 30.13 1020 10 16 0.00 0.00
8:53 am 08:53 Sunny 76 24.4 71 21.7 85 85 S 6 9 30.14 1021 10 16 0.00 0.00
9:53 am 09:53 Mostly Sunny 80 26.7 72 22.2 76 76 SW 5 7 30.14 1021 10 16 0.00 0.00
10:53 am 10:53 Partly Cloudy 84 28.9 73 22.8 70 70 VRB 6 9 30.14 1021 10 16 0.00 0.00
11:53 am 11:53 Mostly Sunny 87 30.6 70 21.1 57 57 Calm 30.13 1020 10 16 0.00 0.00
12:53 pm 12:53 Mostly Cloudy 86 30 69 20.6 57 57 VRB 6 9 30.13 1020 10 16 0.00 0.00
1:53 pm 13:53 Sunny 89 31.7 70 21.1 53 53 VRB 6 9 30.11 1020 10 16 0.00 0.00
2:53 pm 14:53 Mostly Cloudy 90 32.2 68 20 48 48 NNW 5 7 30.09 1019 10 16 0.00 0.00
3:53 pm 15:53 Sunny 92 33.3 68 20 46 46 W 6 9 30.07 1018 10 16 0.00 0.00
4:53 pm 16:53 Partly Cloudy 92 33.3 67 19.4 44 44 NNW 7 11 30.05 1018 10 16 0.00 0.00
5:53 pm 17:53 Sunny 91 32.8 68 20 47 47 W 6 9 30.05 1018 10 16 0.00 0.00
6:53 pm 18:53 Sunny 91 32.8 68 20 47 47 VRB 5 7 30.05 1018 10 16 0.00 0.00
7:53 pm 19:53 Sunny 88 31.1 69 20.6 54 54 WNW 5 7 30.05 1018 10 16 0.00 0.00
8:53 pm 20:53 Sunny 84 28.9 70 21.1 63 63 Calm 30.06 1018 10 16 0.00 0.00
9:53 pm 21:53 Clear 77 25 70 21.1 79 79 SW 3 6 30.08 1019 10 16 0.00 0.00
10:53 pm 22:53 Clear 78 25.6 70 21.1 76 76 Calm 30.09 1019 10 16 0.00 0.00
11:53 pm 23:53 Clear 78 25.6 71 21.7 79 79 Calm 30.10 1019 10 16 0.00 0.00

Powered by AerisWeather